OpenBCM V1.13 (Linux)

Packet Radio Mailbox

DB0FHN

[JN59NK Nuernberg]

 Login: GUEST





  
LU9DCE > KEP      09.03.19 20:34l 258 Lines 12523 Bytes #999 (0) @ WW
BID : 19871_LU9DCE
Read: DF7EAV DK3UZ GUEST
Subj: TLE 09 03
Path: DB0FHN<DB0BLO<DB0ERF<DB0RES<IR2UBX<IZ3LSV<IW0QNL<VE2PKT<LU3DVN<LU1DNS<
      LU9HGS<LU9DCE
Sent: 190309/1800Z 19871@LU9DCE.TOR.BA.ARG.SOAM LinBPQ6.0.18

            __    _  _  ___  ____   ___  ____    ____  ____  ____
           (  )  / )( \/ _ \(    \ / __)(  __)  (  _ \(  _ \/ ___)
           / (_/\) \/ (\__  )) D (( (__  ) _)    ) _ ( ) _ (\___ \
           \____/\____/(___/(____/ \___)(____)  (____/(____/(____/
               ESTACION DE PACKET RADIO - BUENOS AIRES (GF05OM)
                   BOLETINES INFORMATIVOS PROGRAMADOS (BIP)
                  SOPORTE TECNICO - HELLOCODELINUX@GMAIL.COM

+----------------------------------------------------------------------------+
OSCAR 7
1  7530U 74089B   19068.52736331 -.00000046  00000-0 -97390-5 0  9992
2  7530 101.7314  37.2780 0012061 180.9637 288.9923 12.53636949 27845
OSCAR 11 (UoSAT 2)
1 14781U 84021B   19068.22712485  .00000033  00000-0  10240-4 0  9998
2 14781  97.6219  97.6861 0007089 297.6704  62.3791 14.83068064883729
OSCAR 19 (LUSAT)
1 20442U 90005G   19068.41955300 -.00000010  00000-0  12451-4 0  9996
2 20442  98.6393  10.6448 0012921  88.0071 272.2592 14.32918841521877
EYESAT A
1 22825U 93061C   19067.90801569 -.00000012 +00000-0 +13542-4 0  9992
2 22825 098.8959 054.2626 0007474 299.4340 060.6095 14.30052741327136
ITAMSAT
1 22826U 93061D   19068.21317711 -.00000006  00000-0  15414-4 0  9992
2 22826  98.8900  54.5785 0007890 285.9388  74.0924 14.30385807327644
RADIO ROSTO
1 23439U 94085A   19067.81964109 -.00000041 +00000-0 +35169-4 0  9992
2 23439 064.8148 280.8692 0148553 132.7379 356.5529 11.27568181996400
JAS 2
1 24278U 96046B   19068.46895090 -.00000041  00000-0 -85760-5 0  9991
2 24278  98.5214 235.6876 0351049 142.4482 220.1741 13.53089383114116
TECHSAT 1B
1 25397U 98043D   19068.41478859 -.00000007  00000-0  16090-4 0  9998
2 25397  98.6798   9.8388 0001287  23.5268 336.5970 14.23661281 73462
ISS (ZARYA)
1 25544U 98067A   19068.60022663  .00002136  00000-0  41344-4 0  9991
2 25544  51.6426 136.3498 0004025  90.3087  56.1499 15.52797559159787
PCSAT
1 26931U 01043C   19068.54411172 -.00000035  00000-0  18268-4 0  9996
2 26931  67.0494 264.6882 0005359 273.6824  86.3665 14.30534484910508
SAUDISAT 1C
1 27607U 02058C   19068.15469437 -.00000031  00000-0  16513-4 0  9995
2 27607  64.5566   0.0273 0082303 275.8491  83.3234 14.75525311872059
CUTE-1
1 27844U 03031E   19067.56827767 +.00000034 +00000-0 +35003-4 0  9995
2 27844 098.6868 077.2957 0009206 332.6579 027.4113 14.22163535813733
CUBESAT XI 4
1 27848U 03031J   19067.81291980  .00000024  00000-0  30959-4 0  9993
2 27848  98.6948  78.0131 0009296 343.6892  16.3985 14.21760685813662
MOZHAYETS 4
1 27939U 03042A   19068.47180599  .00000056  00000-0  18632-4 0  9991
2 27939  98.0226 206.3627 0013645  34.3824 325.8264 14.66758947825707
CUBESAT XI 5
1 28895U 05043F   19068.39922472  .00000091  00000-0  26413-4 0  9996
2 28895  97.9416 214.6988 0015714 314.5645  45.4274 14.63636164712662
CUTE-1.7+APD II
1 32785U 08021C   19068.23085793  .00000163  00000-0  23259-4 0  9992
2 32785  97.5489  72.7400 0011795 235.7437 124.2663 14.88259501588595
DELFI C3
1 32789U 08021G   19068.08271552  .00001448  00000-0  10138-3 0  9997
2 32789  97.4780 120.7590 0013900 111.8518 248.4190 15.06702313591661
SEEDS
1 32791U 08021J   19068.01654850  .00000211  00000-0  26868-4 0  9994
2 32791  97.5304  78.3884 0012538 210.7804 149.2681 14.90747762588965
YUBELEINY
1 32953U 08025A   19068.47617107  .00000020  00000-0  75656-4 0  9999
2 32953  82.5032 207.6896 0018740 353.3912   6.6918 12.43088093489737
PRISM (HITOMI)
1 33493U 09002B   19067.70175847  .00000652  00000-0  62840-4 0  9992
2 33493  98.1229 344.7955 0015650 156.5219 203.6719 14.96529177549892
KKS-1 (KISEKI)
1 33499U 09002H   19068.55872414  .00000066  00000-0  17733-4 0  9996
2 33499  98.3547 264.0003 0009544 161.2965 198.8596 14.75412174544312
SWISSCUBE
1 35932U 09051B   19067.90779445 +.00000099 +00000-0 +33429-4 0  9998
2 35932 098.5746 230.9661 0008761 115.6157 244.5946 14.56250485501929
BEESAT
1 35933U 09051C   19068.39807860  .00000087  00000-0  30571-4 0  9998
2 35933  98.5779 233.1763 0006879 124.5162 235.6685 14.56344121502144
ITUPSAT 1
1 35935U 09051E   19067.98504933  .00000058  00000-0  24496-4 0  9996
2 35935  98.5891 232.9959 0009175 123.9402 236.2668 14.55508585501846
XIWANG-1 (HOPE-1)
1 36122U 09072B   19068.42144779 -.00000007  00000-0  93401-4 0  9993
2 36122 100.0736  75.5643 0006837 215.1870 144.8797 13.16349062443557
TISAT 1
1 36799U 10035E   19067.88062106  .00000424  00000-0  48975-4 0  9994
2 36799  98.1394 216.7524 0013419  63.5861 296.6731 14.91020307469598
JUGNU
1 37839U 11058B   19067.74964660 +.00000291 +00000-0 +13500-4 0  9995
2 37839 019.9603 232.9646 0018911 283.6258 203.8159 14.12643077382710
SRMSAT
1 37841U 11058D   19068.01277432  .00000313  00000-0  26548-4 0  9994
2 37841  19.9719 286.0428 0011865 159.5825   1.6440 14.10625891382327
M-CUBED/EXP-1 PRIME
1 37855U 11061F   19067.83645698 +.00000952 +00000-0 +55775-4 0  9998
2 37855 101.7276 271.0819 0174344 018.6393 342.1098 15.05179079400987
HORYU 2
1 38340U 12025D   19068.54580834  .00000140  00000-0  28467-4 0  9995
2 38340  98.3420 104.0346 0012821  87.6444 272.6232 14.75675987366245
STRAND 1
1 39090U 13009E   19067.57276868 -.00000000  00000-0  15189-4 0  9995
2 39090  98.4982 275.1795 0008254 227.9048 132.1436 14.35073042315749
SOMP
1 39134U 13015E   19068.17011511  .00001276  00000-0  68330-4 0  9991
2 39134  64.8650 349.2778 0021041 319.6183  40.3381 15.19878905325169
BEESAT 3
1 39135U 13015F   19068.17732028  .00000789  00000-0  49280-4 0  9996
2 39135  64.8709   6.1562 0009808 288.9180  71.0883 15.17247450324842
BEESAT 2
1 39136U 13015G   19068.17684348  .00001031  00000-0  62301-4 0  9998
2 39136  64.8715   9.6708 0011190 290.8536  69.1391 15.16687783324774
CUBEBUG 1
1 39153U 13018D   19068.52270620  .00000190  00000-0  31720-4 0  9999
2 39153  97.9748 167.2518 0017471 162.2337 197.9489 14.80521847316840
ZACUBE
1 39417U 13066B   19068.16327167  .00000195  00000-0  30903-4 0  9991
2 39417  97.5691  87.3376 0059124   8.3967 351.8221 14.81065067286018
TRITON 1
1 39427U 13066M   19068.49616055  .00000160  00000-0  33259-4 0  9994
2 39427  97.6666  52.1890 0115015 129.0345 232.1167 14.67788297283496
GOMX 1
1 39430U 13066Q   19068.48102899  .00000098  00000-0  27050-4 0  9995
2 39430  97.7328  31.7759 0150266 213.0192 146.1552 14.59204222281845
HUMSAT D
1 39433U 13066T   19068.42132167  .00000538  00000-0  57993-4 0  9991
2 39433  97.5680 119.9940 0029280 278.7733  81.0171 14.92099186287970
CUBEBUG 2
1 39440U 13066AA  19068.52581641  .00000194  00000-0  33864-4 0  9994
2 39440  97.6013  72.9454 0081573  54.3174 306.5594 14.75802752285050
FUNCUBE 1
1 39444U 13066AE  19067.61179627 +.00000246 +00000-0 +36641-4 0  9998
2 39444 097.5680 088.6580 0058135 004.5712 355.6020 14.81872998284223
UWE-3
1 39446U 13066AG  19068.02631722  .00000201  00000-0  33256-4 0  9995
2 39446  97.5838  79.3597 0070874  32.9286 327.6311 14.78337683284247
SPROUT
1 39770U 14029E   19068.51206310  .00000480  00000-0  59464-4 0  9998
2 39770  97.8792 172.5231 0010301  62.7028 297.5238 14.87202087259798
UNISAT 6
1 40012U 14033C   19068.18635640  .00000150  00000-0  29682-4 0  9992
2 40012  97.7729 299.0764 0059721  65.8279 294.9158 14.73934579253738
DUCHIFAT 1
1 40021U 14033M   19067.77648719  .00000333  00000-0  39881-4 0  9992
2 40021  97.9224 352.0539 0013811  31.6602 328.5443 14.90539467256360
QB50P1
1 40025U 14033R   19067.75110092 +.00000222 +00000-0 +29636-4 0  9996
2 40025 097.9068 347.6023 0013417 040.0138 320.2065 14.88877955255641
CHUBUSAT 1
1 40300U 14070C   19068.21060708  .00000575  00000-0  28128-4 0  9999
2 40300  97.3363 144.9240 0021356  54.1702   4.3031 15.21939211240584
NUDT-PHONESAT
1 40900U 15049B   19068.43668420  .00001723  00000-0  77608-4 0  9994
2 40900  97.4400  78.7829 0013225 172.0705 296.1516 15.22347594192256
ZDPS 2A
1 40901U 15049C   19068.40521449  .00000946  00000-0  50454-4 0  9997
2 40901  97.4608  75.7015 0012834 188.0946 281.1411 15.17539561191876
ZDPS 2B
1 40902U 15049D   19068.48486082  .00000804  00000-0  43615-4 0  9993
2 40902  97.4530  73.4121 0013217 185.1633 298.2470 15.17313409191865
XW-2A
1 40903U 15049E   19068.46098846  .00001761  00000-0  44022-4 0  9995
2 40903  97.3520 110.5980 0014828 145.3243 326.9790 15.41440408194655
KAITUO 1A
1 40904U 15049F   19068.44403440  .00000127  00000-0  10273-4 0  9990
2 40904  97.4653  72.1989 0014006 192.7259 305.2459 15.15261992191667
OBJECT G
1 40905U 15049G   19068.44679416  .00000252  00000-0  17335-4 0  9994
2 40905  97.4681  69.8820 0015259 186.7741 277.3122 15.14198474191553
XW-2C
1 40906U 15049H   19068.39290685  .00000697  00000-0  40199-4 0  9993
2 40906  97.4662  72.1659 0014598 183.5343 284.4238 15.15534296191653
XW-2D
1 40907U 15049J   19068.44812319  .00000495  00000-0  29407-4 0  9999
2 40907  97.4638  71.8984 0014119 180.7034 284.0365 15.15709448191671
LILACSAT 2
1 40908U 15049K   19068.52768194  .00000436  00000-0  27771-4 0  9997
2 40908  97.4764  70.9774 0015544 186.0926 291.6242 15.13718541191503
XW-2F
1 40910U 15049M   19068.50771242  .00000658  00000-0  36553-4 0  9990
2 40910  97.4622  73.7530 0015083 174.3357 315.1835 15.17068315191675
XW-2B
1 40911U 15049N   19068.47925123  .00000813  00000-0  46191-4 0  9998
2 40911  97.4662  72.5512 0013625 181.3118 299.7750 15.15645644191576
KAITUO 1B
1 40912U 15049P   19068.49287162  .00001016  00000-0  51180-4 0  9995
2 40912  97.4511  77.1687 0015611 158.9688 324.6457 15.19352587191941
TIANWANG 1C (TW-1C)
1 40926U 15051B   19068.53319880  .00009653  00000-0  15333-3 0  9995
2 40926  97.1504 114.9160 0009911  38.0131  68.6373 15.53489623194448
